Погода в Духовщине

Россия / Смоленская область     55°11′28″N   32°24′51″E
темп.,
°C
ветер,
м/с
пор.,
м/с
влажн.,
%
обл.,
%
осадки,
мм/ч
давл.,
гПа
погр.,
м
17 апреля, сб
сб1700:00+10всв61093100 8.6 1018814
03:00+9всв41094100 13.6 1018611
06:00+8всв499593 0.3 1019445
09:00+10в4786100 0.4 1020600
12:00+11св4683100 0.1 1020762
15:00+10св5985100 0.2 1020947
18:00+12всв7137995 0.3 10181094
21:00+11св6147665 1.6 1019936
18 апреля, вс
вс1800:00+9св6137698 0.0 1018872
03:00+7всв51177100 0.0 1020764
06:00+6св41081100 0.2 1020655
09:00+5всв4891100 0.8 1021807
12:00+4всв4896100 0.6 1022685
15:00+6св5888100 0.6 1022633
18:00+5всв5992100 0.0 1022760
21:00+5всв4993100 0.0 1023663
19 апреля, пн
пн1900:00+5всв4994100 0.0 1023478
03:00+5св4994100 0.0 1023600
06:00+5св51190100 0.1 1022799
09:00+6всв4991100 0.1 1023972
12:00+6всв51090100 0.0 1023734
15:00+6всв6988100 0.1 1023904
18:00+5всв51193100 0.1 1022850
21:00+5всв51092100 0.2 1021975
20 апреля, вт
вт2000:00+5всв51295100 0.0 1020795
03:00+4всв61395100 4.6 1017856
06:00+4в41197100 6.5 1016885
09:00+5в61291100 9.4 1015955
12:00+5всв51192100 2.0 1014966
15:00+4всв61496100 3.8 1010976
18:00+4всв71795100 5.9 10051173
21:00+4всв81996100 13.3 10001414
21 апреля, ср
ср2100:00+6в61593100 1.7 996881
03:00+7в61395100 1.8 995754
06:00+8вюв51194100 0.4 993851
09:00+3ююв61196100 0.9 994611
12:00+3ююз71596100 1.1 997893
15:00+5ююз71592100 1.8 10011315
18:00+5ююз71589100 0.1 10031263
21:00+5ююз51090100 0.3 10061058